This is the latest recevied weather packets stored in our database for station/object HB9MIR-13. If no packets are shown the sender has not sent any weather packets the latest 10 day(s).
| Time | Temp. | Humidity | Pressure | Rain* | Wind** | Luminosity | Snow |
|---|---|---|---|---|---|---|---|
| 1777719165 | 23.33° C | 40% | 1019.8 hPa | 0 mm | - | 798 W/m² | - |
| 1777718429 | 23.33° C | 43% | 1019.5 hPa | 0 mm | - | 786 W/m² | - |
| 1777717728 | 22.78° C | 41% | 1020.1 hPa | 0 mm | - | 764 W/m² | - |
| 1777717041 | 22.22° C | 43% | 1020.2 hPa | 0 mm | - | 736 W/m² | - |
| 1777716354 | 22.22° C | 47% | 1020.4 hPa | 0 mm | - | 765 W/m² | - |
| 1777715665 | 21.11° C | 44% | 1020.4 hPa | 0 mm | - | 733 W/m² | - |
| 1777714929 | 21.11° C | 46% | 1021.2 hPa | 0 mm | - | 727 W/m² | - |
| 1777714228 | 19.44° C | 49% | 1021.1 hPa | 0 mm | - | 712 W/m² | - |
| 1777713541 | 18.33° C | 52% | 1021.4 hPa | 0 mm | - | 706 W/m² | - |
| 1777712854 | 18.33° C | 52% | 1021.5 hPa | 0 mm | - | 655 W/m² | - |
| 1777712167 | 17.78° C | 51% | 1021.4 hPa | 0 mm | - | 605 W/m² | - |
| 1777711431 | 17.22° C | 54% | 1021.5 hPa | 0 mm | - | 497 W/m² | - |
| 1777710730 | 16.67° C | 54% | 1021.5 hPa | 0 mm | - | 579 W/m² | - |
| 1777710041 | 16.11° C | 56% | 1021.8 hPa | 0 mm | - | 536 W/m² | - |
| 1777709355 | 15.56° C | 58% | 1021.9 hPa | 0 mm | - | 560 W/m² | - |
| 1777708666 | 14.44° C | 62% | 1021.9 hPa | 0 mm | - | 436 W/m² | - |
| 1777707980 | 13.33° C | 65% | 1021.9 hPa | 0 mm | - | 441 W/m² | - |
| 1777707292 | 12.78° C | 67% | 1022.1 hPa | 0 mm | - | 109 W/m² | - |
| 1777706617 | 11.67° C | 66% | 1022 hPa | 0 mm | - | 101 W/m² | - |
| 1777705917 | 11.11° C | 69% | 1022.1 hPa | 0 mm | - | 101 W/m² | - |
| 1777705231 | 10.56° C | 73% | 1022.3 hPa | 0 mm | - | 96 W/m² | - |
| 1777704543 | 10° C | 72% | 1022.3 hPa | 0 mm | - | 87 W/m² | - |
| 1777703856 | 9.44° C | 72% | 1022.3 hPa | 0 mm | - | 86 W/m² | - |
| 1777703121 | 8.89° C | 76% | 1022.3 hPa | 0 mm | - | 84 W/m² | - |
| 1777702419 | 8.33° C | 80% | 1022.3 hPa | 0 mm | - | 79 W/m² | - |
* Rain latest hour (hover to see other rain measurements)
** Current wind speed in m/s (hover to see current wind gust speed)